User: anonymous   Login
Location: Tyler Bend Campground
(35.9875°N, 92.7606°W)
Time: 21:09:37
(UTC-05:00)
Language:

Iridium 39 - Orbit

View from above orbital plane
View from above orbital plane
View from above satellite
View from above satellite

Ground track
Ground track

The orbit data is extracted from the following two-line orbital elements,

1 25042U 97069D   16210.39189073  .00000131  00000-0  30993-4 0  9997
2 25042  86.3961 157.3501 0017344 314.9597  45.0198 14.46070878979925
Epoch (UTC): 28 July 2016 09:24:19
Eccentricity: 0.0017344
inclination: 86.3961°
perigee height: 726 km
apogee height: 751 km
right ascension of ascending node: 157.3501°
argument of perigee: 314.9597°
revolutions per day: 14.46070878
mean anomaly at epoch: 45.0198°
orbit number at epoch: 97992

The dashed part of the orbit path shows where the satellite is in the earth's shadow,  

DLR